Location: Bacea
(45.9500°N, 22.6667°E)
Time: 06:46:52
(UTC+00:00)

Cosmos 1300 - Pass Details

Date: 07 June 2022
Orbit: 506 x 508 km, 82.5° (Epoch: 06 July)

Event Time Altitude Azimuth Distance (km) Brightness Sun altitude
Rises 21:08:18 0° 360° (N) 2,623 7.6 -18.9°
Reaches altitude 10° 21:10:37 10° 10° (N) 1,732 6.2 -19.0°
Maximum altitude 21:14:02 31° 75° (ENE) 903 3.8 -19.2°
Enters shadow 21:14:41 29° 96° (E) 945 3.8 -19.2°
